Weather History for Mackinac Island, MI

Change the Weather History Date:

Saturday, April 5, 2014

  Actual Average Record
Temperature  
Mean Temperature 25 °F -  
Max Temperature 30 °F 39 °F 56 °F (1987)
Min Temperature 20 °F 25 °F 7 °F (1982)
Degree Days  
Heating Degree Days 40    
Moisture  
Dew Point 22 °F    
Average Humidity 86    
Maximum Humidity 96    
Minimum Humidity 71    
Precipitation  
Precipitation 0.03 in - - ()
Sea Level Pressure  
Sea Level Pressure 29.96 in    
Wind  
Wind Speed 12 mph (West)    
Max Wind Speed 17 mph    
Max Gust Speed 28 mph    
Visibility 10 miles    
Events Snow    
Averages and records for this station are not official NWS values.
T = Trace of Precipitation, MM = Missing Value Source: NWS Daily Summary

Daily Weather History Graph

Daily Weather History Graph

Search for Another Location

Airport:

Trip Planner

Search our weather history database for the weather conditions in past years. The results will help you decide how hot, cold, wet, or windy it might be!

Date:

Astronomy

Apr. 05, 2014 Rise Set
Actual Time 7:10 AM EDT 8:12 PM EDT
Civil Twilight 6:40 AM EDT 8:42 PM EDT
Nautical Twilight 6:04 AM EDT 9:19 PM EDT
Astronomical Twilight 5:25 AM EDT 9:57 PM EDT
Moon 11:06 AM EDT (4/5) 1:32 AM EDT (4/5)
Length of Visible Light 14h 02m
Length of Day
13h 01m
Waxing Crescent, 34% of the Moon is Illuminated
Apr 5
Waxing Crescent
Apr 7
First Quarter
Apr 15
Full
Apr 22
Last Quarter
Apr 29
New

Hourly Weather History & Observations

Time (EDT) Temp. Windchill Dew Point Humidity Pressure Visibility Wind Dir Wind Speed Gust Speed Precip Events Conditions
12:16 AM 23.9 °F 13.5 °F 23.0 °F 96% 29.61 in 10.0 mi NW 10.4 mph 23.0 mph N/A   Overcast
12:37 AM 23.4 °F 9.6 °F 22.1 °F 95% 29.62 in 10.0 mi NW 17.3 mph 25.3 mph N/A   Overcast
12:56 AM 22.6 °F 9.2 °F 21.2 °F 94% 29.64 in 7.0 mi NW 16.1 mph 23.0 mph N/A Snow Light Snow
1:16 AM 22.3 °F 9.7 °F 21.0 °F 95% 29.65 in 10.0 mi NW 13.8 mph 23.0 mph N/A   Overcast
1:36 AM 21.7 °F 10.2 °F 20.3 °F 94% 29.67 in 7.0 mi WNW 11.5 mph 21.9 mph N/A   Overcast
1:56 AM 21.7 °F 7.5 °F 20.5 °F 95% 29.68 in 5.0 mi WNW 17.3 mph 23.0 mph N/A Snow Light Snow
2:16 AM 21.6 °F 10.6 °F 20.1 °F 94% 29.69 in 5.0 mi NW 10.4 mph 20.7 mph N/A Snow Light Snow
2:36 AM 21.6 °F 8.8 °F 20.3 °F 95% 29.70 in 5.0 mi NW 13.8 mph 23.0 mph N/A Snow Light Snow
2:56 AM 21.6 °F 7.8 °F 19.8 °F 93% 29.72 in 10.0 mi NW 16.1 mph 27.6 mph N/A   Overcast
3:17 AM 20.8 °F 6.8 °F 18.9 °F 92% 29.74 in 10.0 mi NW 16.1 mph 25.3 mph N/A   Overcast
3:36 AM 20.3 °F 6.1 °F 18.5 °F 93% 29.75 in 10.0 mi WNW 16.1 mph 21.9 mph N/A   Overcast
3:56 AM 20.3 °F 7.7 °F 18.5 °F 93% 29.76 in 10.0 mi WNW 12.7 mph 26.5 mph N/A   Overcast
4:36 AM 20.3 °F 6.6 °F 18.3 °F 92% 29.80 in 10.0 mi NW 15.0 mph 20.7 mph N/A   Overcast
4:56 AM 21.0 °F 8.6 °F 19.0 °F 92% 29.81 in 10.0 mi WNW 12.7 mph 21.9 mph N/A   Overcast
5:17 AM 21.2 °F 8.9 °F 19.6 °F 93% 29.83 in 10.0 mi NW 12.7 mph 20.7 mph N/A   Overcast
5:36 AM 21.2 °F 6.8 °F 19.6 °F 93% 29.84 in 10.0 mi NW 17.3 mph 25.3 mph N/A   Overcast
5:56 AM 21.2 °F 7.8 °F 19.8 °F 94% 29.85 in 10.0 mi NW 15.0 mph 23.0 mph N/A   Overcast
6:17 AM 21.6 °F 11.3 °F 19.8 °F 93% 29.86 in 10.0 mi NW 9.2 mph 17.3 mph N/A   Overcast
6:36 AM 21.6 °F 13.0 °F 20.3 °F 95% 29.87 in 10.0 mi WNW 6.9 mph - N/A   Overcast
6:56 AM 21.9 °F 9.2 °F 20.5 °F 94% 29.89 in 10.0 mi WNW 13.8 mph 21.9 mph N/A   Overcast
7:17 AM 21.2 °F 9.5 °F 19.4 °F 93% 29.90 in 10.0 mi WNW 11.5 mph 19.6 mph N/A   Overcast
7:36 AM 21.0 °F 9.3 °F 19.4 °F 93% 29.92 in 10.0 mi WNW 11.5 mph 17.3 mph N/A   Overcast
7:57 AM 20.7 °F 10.2 °F 19.2 °F 94% 29.93 in 10.0 mi WNW 9.2 mph 18.4 mph N/A   Overcast
8:16 AM 20.5 °F 7.4 °F 18.9 °F 93% 29.95 in 10.0 mi WNW 13.8 mph 18.4 mph N/A   Overcast
8:36 AM 20.7 °F 8.2 °F 19.0 °F 93% 29.96 in 10.0 mi WNW 12.7 mph 19.6 mph N/A   Overcast
8:57 AM 21.0 °F 8.6 °F 19.4 °F 93% 29.97 in 10.0 mi WNW 12.7 mph 18.4 mph N/A   Overcast
9:16 AM 21.0 °F 7.6 °F 19.2 °F 93% 29.98 in 10.0 mi WNW 15.0 mph 20.7 mph N/A   Overcast
9:36 AM 21.9 °F 9.8 °F 19.9 °F 92% 29.99 in 10.0 mi WNW 12.7 mph 20.7 mph N/A   Mostly Cloudy
9:57 AM 22.8 °F 12.9 °F 20.8 °F 92% 30.00 in 10.0 mi WNW 9.2 mph - N/A   Scattered Clouds
10:16 AM 23.5 °F 13.0 °F 21.4 °F 91% 30.00 in 10.0 mi WNW 10.4 mph 16.1 mph N/A   Scattered Clouds
10:37 AM 24.4 °F 14.2 °F 22.1 °F 91% 30.01 in 10.0 mi WNW 10.4 mph - N/A   Scattered Clouds
10:57 AM 25.7 °F 17.1 °F 23.2 °F 90% 30.01 in 10.0 mi WNW 8.1 mph - N/A   Scattered Clouds
11:16 AM 26.4 °F 16.6 °F 23.5 °F 89% 30.02 in 10.0 mi WNW 10.4 mph - N/A   Mostly Cloudy
11:37 AM 27.0 °F 18.0 °F 23.7 °F 88% 30.02 in 10.0 mi West 9.2 mph - N/A   Overcast
11:57 AM 27.0 °F 18.0 °F 24.3 °F 90% 30.02 in 10.0 mi West 9.2 mph - N/A   Mostly Cloudy
12:16 PM 27.9 °F 17.3 °F 24.4 °F 87% 30.03 in 10.0 mi West 12.7 mph 16.1 mph N/A   Mostly Cloudy
12:37 PM 28.4 °F 18.0 °F 24.8 °F 86% 30.04 in 10.0 mi West 12.7 mph - N/A   Mostly Cloudy
12:57 PM 28.4 °F 17.5 °F 24.6 °F 86% 30.05 in 10.0 mi West 13.8 mph - N/A   Mostly Cloudy
1:16 PM 27.9 °F 17.3 °F 23.9 °F 85% 30.05 in 10.0 mi West 12.7 mph 24.2 mph N/A   Mostly Cloudy
1:37 PM 28.4 °F 18.0 °F 23.0 °F 80% 30.06 in 10.0 mi West 12.7 mph 20.7 mph N/A   Mostly Cloudy
1:57 PM 28.8 °F 17.0 °F 23.2 °F 80% 30.07 in 10.0 mi West 16.1 mph 21.9 mph N/A   Mostly Cloudy
2:16 PM 28.6 °F 17.2 °F 22.6 °F 78% 30.07 in 10.0 mi West 15.0 mph 23.0 mph N/A   Scattered Clouds
2:37 PM 28.8 °F 18.4 °F 23.4 °F 80% 30.07 in 10.0 mi WSW 12.7 mph 19.6 mph N/A   Scattered Clouds
2:56 PM 29.1 °F 18.9 °F 23.2 °F 78% 30.07 in 10.0 mi WSW 12.7 mph 21.9 mph N/A   Scattered Clouds
3:17 PM 29.3 °F 20.2 °F 23.9 °F 80% 30.07 in 10.0 mi WSW 10.4 mph 25.3 mph N/A   Scattered Clouds
3:37 PM 29.1 °F 19.4 °F 24.4 °F 83% 30.08 in 10.0 mi WSW 11.5 mph 24.2 mph N/A   Mostly Cloudy
3:56 PM 30.0 °F 21.7 °F 24.4 °F 80% 30.08 in 10.0 mi WSW 9.2 mph 19.6 mph N/A   Mostly Cloudy
4:17 PM 29.3 °F 20.2 °F 25.0 °F 84% 30.08 in 10.0 mi WSW 10.4 mph 20.7 mph N/A   Scattered Clouds
4:37 PM 28.8 °F 19.0 °F 24.1 °F 83% 30.08 in 10.0 mi SW 11.5 mph 23.0 mph N/A   Clear
4:56 PM 28.8 °F 20.2 °F 24.6 °F 84% 30.08 in 10.0 mi WSW 9.2 mph 25.3 mph N/A   Scattered Clouds
5:17 PM 28.9 °F 18.6 °F 24.6 °F 84% 30.08 in 10.0 mi WSW 12.7 mph 20.7 mph N/A   Clear
5:36 PM 28.9 °F 19.8 °F 24.6 °F 84% 30.08 in 10.0 mi WSW 10.4 mph 23.0 mph N/A   Clear
5:56 PM 29.1 °F 20.0 °F 24.4 °F 83% 30.08 in 10.0 mi SW 10.4 mph 19.6 mph N/A   Clear
6:17 PM 29.1 °F 18.9 °F 23.9 °F 81% 30.09 in 10.0 mi WSW 12.7 mph 18.4 mph N/A   Clear
6:37 PM 28.9 °F 19.2 °F 23.4 °F 80% 30.09 in 10.0 mi WSW 11.5 mph - N/A   Clear
6:56 PM 28.8 °F 18.4 °F 23.4 °F 80% 30.09 in 10.0 mi WSW 12.7 mph 18.4 mph N/A   Clear
7:17 PM 28.8 °F 20.2 °F 23.0 °F 79% 30.09 in 10.0 mi SW 9.2 mph - N/A   Clear
7:36 PM 28.4 °F 19.7 °F 22.6 °F 79% 30.09 in 10.0 mi WSW 9.2 mph - N/A   Clear
7:57 PM 27.9 °F 18.4 °F 20.8 °F 75% 30.08 in 10.0 mi WSW 10.4 mph - N/A   Clear
8:17 PM 27.3 °F 20.9 °F 20.5 °F 75% 30.08 in 10.0 mi SW 5.8 mph - N/A   Clear
8:36 PM 27.5 °F 20.2 °F 21.6 °F 78% 30.07 in 10.0 mi SSW 6.9 mph - N/A   Clear
8:57 PM 27.9 °F 19.8 °F 22.1 °F 79% 30.08 in 10.0 mi SSW 8.1 mph - N/A   Clear
9:17 PM 28.0 °F 20.8 °F 22.5 °F 80% 30.08 in 10.0 mi SSW 6.9 mph - N/A   Clear
9:36 PM 28.2 °F 20.2 °F 21.9 °F 77% 30.08 in 10.0 mi SSW 8.1 mph - N/A   Clear
9:57 PM 27.9 °F 20.6 °F 21.2 °F 76% 30.08 in 10.0 mi SSW 6.9 mph - N/A   Clear
10:17 PM 27.5 °F 20.2 °F 21.2 °F 77% 30.08 in 10.0 mi SSW 6.9 mph - N/A   Clear
10:37 PM 27.3 °F 19.9 °F 20.3 °F 75% 30.08 in 10.0 mi SSW 6.9 mph - N/A   Clear
10:57 PM 27.1 °F 19.7 °F 20.3 °F 75% 30.07 in 10.0 mi SSW 6.9 mph - N/A   Clear
11:17 PM 27.5 °F 20.2 °F 19.4 °F 72% 30.07 in 10.0 mi SSW 6.9 mph - N/A   Clear
11:37 PM 26.6 °F 18.2 °F 20.3 °F 77% 30.06 in 10.0 mi SSW 8.1 mph - N/A   Clear
11:56 PM 27.7 °F 18.8 °F 19.2 °F 71% 30.06 in 10.0 mi South 9.2 mph - N/A   Clear